Regional Weather Roundup
Issued by NWS

Home | Current Version | Previous Version | Text Only | Print | Product List | Glossary Off
Versions: 1 2 3 4 5 6 7 8 9 10 11 12 13 14 15 16 17 18 19 20 21 22 23 24 25 26 27 28 29 30 31 32 33 34 35 36 37 38 39 40 41 42 43 44 45 46 47 48 49 50

000
ASUS43 KDMX 300608
RWRIA

WEATHER ROUNDUP FOR IOWA
NATIONAL WEATHER SERVICE DES MOINES IA
100 AM CDT TUE AUG 30 2016

NOTE: "FAIR" INDICATES FEW OR NO CLOUDS BELOW 12,000 FEET WITH NO
SIGNIFICANT WEATHER AND/OR OBSTRUCTIONS TO VISIBILITY.

* - THESE STATIONS ARE NOT NWS STATIONS...THUS NOT UNDER NWS
QUALITY CONTROL.  THEY ALSO DO NOT REPORT WEATHER SUCH
AS PRECIPITATION OR FOG.

IAZ001>003-012>014-020>022-031>034-043>046-300700-
   NORTHWEST IOWA

CITY           SKY/WX    TMP DP  RH WIND       PRES   REMARKS
CARROLL *        N/A     68  68 100 CALM      30.19S
CHEROKEE *       N/A     69  68  98 CALM      30.18F
DENISON *        N/A     68  66  94 CALM      30.17F
LE MARS *        N/A     68  66  94 CALM      30.19F
ORANGE CITY *    N/A     68  66  94 SW3       30.19F
SHELDON *      MOCLDY    68  68 100 SW6       30.17F
SIOUX CITY       N/A     70  67  90 NW5       30.18S
6HR MIN TEMP:  68; 6HR MAX TEMP:  84; 6HR PCP:  0.12;

SPENCER          N/A     69  66  90 W8        30.18F
6HR MIN TEMP:  69; 6HR MAX TEMP:  80;

STORM LAKE *     N/A     68  66  94 S6        30.20R
$$

IAZ055>058-069>071-079>083-090>094-300700-
   SOUTHWEST IOWA

CITY           SKY/WX    TMP DP  RH WIND       PRES   REMARKS
ATLANTIC *     LGT RAIN  70  68  94 S5        30.19F
AUDUBON *      DRIZZLE   70  66  88 CALM      30.20F
CLARINDA *       N/A     70  70 100 MISG      30.21F
COUNCIL BLFS * CLOUDY    68  68 100 SE3       30.19F
CRESTON *      MOCLDY    70  70 100 W7        30.22F
HARLAN  *        N/A     68  68 100 CALM      30.21F FOG
LAMONI         CLOUDY    71  69  93 N7        30.20R
6HR MIN TEMP:  71; 6HR MAX TEMP:  75;

$$

IAZ047>049-059>061-072>074-084-300700-
   CENTRAL IOWA

CITY           SKY/WX    TMP DP  RH WIND       PRES   REMARKS
AMES             N/A     68  68 100 CALM      30.17F
6HR MIN TEMP:  67; 6HR MAX TEMP:  69; 6HR PCP:  0.01;

ANKENY *         N/A    N/A N/A N/A MISG        N/A
BOONE *          N/A     70  68  94 W6        30.18F
CHARITON *       N/A     70  70 100 MISG      30.18S
DES MOINES     CLOUDY    73  71  93 W7        30.16F
6HR MIN TEMP:  73; 6HR MAX TEMP:  77; 6HR PCP: TRACE;

GRINNELL*        N/A     68  66  93 E5        30.20F
KNOXVILLE *    DRIZZLE   72  70  94 CALM      30.16F
MARSHALLTOWN     N/A     66  66 100 CALM      30.18S FOG
6HR MIN TEMP:  66; 6HR MAX TEMP:  71; 6HR PCP: TRACE;

NEWTON *       CLOUDY    70  70 100 NE5       30.18R
PELLA *          N/A     71  69  93 CALM      30.19S
PERRY *          N/A     69  69 100 CALM      30.19S
$$

IAZ004>006-015-016-023>025-035-036-300700-
   NORTH CENTRAL IOWA

CITY           SKY/WX    TMP DP  RH WIND       PRES   REMARKS
ALGONA *         N/A     70  68  94 S8        30.19S
ESTHERVILLE      N/A     71  70  96 SW9       30.18S
6HR MIN TEMP:  68; 6HR MAX TEMP:  75;

FORT DODGE *   MOCLDY    70  66  88 W6        30.20S
MASON CITY       N/A     67  66  97 SW3       30.21R
6HR MIN TEMP:  66; 6HR MAX TEMP:  74;

FOREST CITY *    N/A    N/A N/A N/A MISG        N/A
WEBSTER CITY * MOCLDY    66  66 100 S3        30.18R
IOWA FALLS *     N/A     67  66  95 CALM      30.20F
$$

IAZ007>011-017>019-026>030-037>042-050>054-066-300700-
   NORTHEAST IOWA

CITY           SKY/WX    TMP DP  RH WIND       PRES   REMARKS
CEDAR RAPIDS     N/A     71  71 100 N3        30.18S
6HR MIN TEMP:  70; 6HR MAX TEMP:  75; 6HR PCP:  0.05;

CHARLES CITY * CLOUDY    70  70 100 CALM      30.20S FOG
CLINTON *        N/A     69  68  96 N5        30.19S
DECORAH *        N/A     70  70 100 CALM      30.19R FOG
DUBUQUE          N/A     68  67  96 S3        30.20S
6HR MIN TEMP:  68; 6HR MAX TEMP:  76;

MONTICELLO *     N/A     70  68  94 CALM      30.18F
OELWEIN *      CLOUDY    68  68 100 CALM      30.20S
WATERLOO         N/A     68  66  93 SW3       30.17F
6HR MIN TEMP:  68; 6HR MAX TEMP:  72;

$$

IAZ064-065-067-068-078-300700-
   EAST CENTRAL IOWA

CITY           SKY/WX    TMP DP  RH WIND       PRES   REMARKS
DAVENPORT        N/A     70  69  97 NW5       30.19S FOG
6HR MIN TEMP:  69; 6HR MAX TEMP:  74; 6HR PCP:  0.01;

IOWA CITY        N/A     72  70  93 SE5       30.18F
6HR MIN TEMP:  72; 6HR MAX TEMP:  75;

MT. PLEASANT * PTCLDY    73  73 100 N5        30.18S FOG
QUAD CITIES      N/A     73  69  87 CALM      30.17S
6HR MIN TEMP:  72; 6HR MAX TEMP:  79;

$$

IAZ062-063-075>077-085>089-095>099-300700-
   SOUTHEAST IOWA

CITY           SKY/WX    TMP DP  RH WIND       PRES   REMARKS
BURLINGTON     PTCLDY    72  71  97 CALM      30.17S
6HR MIN TEMP:  71; 6HR MAX TEMP:  76;

FAIRFIELD *    CLOUDY    70  68  94 CALM      30.18S
FORT MADISON * CLEAR     70  70 100 CALM      30.17F
KEOKUK *       CLEAR     72  70  94 CALM      30.15F
OSKALOOSA *    CLOUDY    68  67  97 NE6       30.20F
CENTERVILLE *    N/A     72  70  94 CALM      30.20F
OTTUMWA        MOCLDY    70  67  90 N8        30.20R
6HR MIN TEMP:  68; 6HR MAX TEMP:  79; 6HR PCP:  1.37;

WASHINGTON *     N/A     72  72 100 NE5       30.19S
$$

ABBREVIATIONS USED IN REMARKS
   TC - TEMPERATURES IN CELSIUS
  WCI - WIND CHILL INDEX
   HX - HEAT INDEX
  VSB - VISIBILITY
$$





USA.gov is the U.S. government's official web portal to all federal, state and local government web resources and services.